Location: York
(31.8935°S, 116.7682°E)
Time: 14:15:38
(UTC+08:00)

Envisat - Pass Details

Date: 22 May 2021
Orbit: 764 x 766 km, 98.1° (Epoch: 18 June)

Event Time Altitude Azimuth Distance (km) Brightness Sun altitude
Rises 03:46:14 0° 54° (NE) 3,225 6.8 -40.5°
Reaches altitude 10° 03:49:17 10° 74° (ENE) 2,308 6.1 -39.9°
Maximum altitude 03:52:29 17° 113° (ESE) 1,874 5.5 -39.2°
Enters shadow 03:53:33 16° 128° (SE) 1,930 5.5 -39.0°
